Date,TemperatureHighF,TemperatureAvgF,TemperatureLowF,DewpointHighF,DewpointAvgF,DewpointLowF,HumidityHigh,HumidityAvg,HumidityLow,PressureMaxIn,PressureMinIn,WindSpeedMaxMPH,WindSpeedAvgMPH,GustSpeedMaxMPH,PrecipitationSumIn
2013-1-1,33,28,15,27,18,6,84,67,52,29.88,29.63,2,0,8,0.01
2013-1-2,25,15,5,14,6,-5,86,67,54,30.07,29.85,2,0,6,0.00
2013-1-3,21,9,0,4,-1,-7,78,62,46,30.09,29.95,1,0,4,0.00
2013-1-4,36,19,6,23,13,0,92,76,60,29.95,29.73,2,0,9,0.00
2013-1-12,41,38,36,40,37,35,98,98,97,30.14,30.09,0,0,1,0.01
2013-1-13,48,43,37,48,43,36,100,99,98,30.10,29.94,0,0,4,0.00
2013-1-14,59,48,38,51,43,30,99,86,57,30.18,29.83,2,0,8,0.00
2013-1-15,40,34,28,31,28,25,92,78,60,30.28,30.18,0,0,4,0.00
2013-1-16,31,30,27,30,28,24,97,92,79,30.22,29.77,0,0,0,0.00
2013-1-17,39,30,22,35,25,11,97,83,50,30.07,29.77,1,0,5,0.14
2013-1-18,27,18,12,12,2,-6,75,50,37,30.39,30.03,3,0,9,0.01
2013-1-19,30,23,13,20,12,7,75,63,60,30.35,30.11,2,0,6,0.00
2013-1-22,16,13,11,9,5,0,76,68,61,30.02,29.97,0,0,3,0.00
2013-1-23,11,7,2,1,-6,-11,76,55,41,30.09,30.01,2,0,8,0.00
2013-1-24,15,7,-2,-5,-9,-14,59,48,36,30.14,30.00,3,1,11,0.00
2013-1-25,20,13,6,0,-3,-6,61,48,36,30.23,30.03,2,1,7,0.00
2013-1-26,24,16,9,11,4,-4,88,60,36,30.16,29.97,2,0,2,0.00
2013-1-27,27,18,12,5,2,-4,67,49,34,30.42,30.16,2,1,8,0.00
2013-1-28,28,20,11,21,10,-1,92,66,28,30.42,30.01,1,0,2,0.00
2013-1-29,34,28,22,30,25,20,93,89,80,30.16,30.01,0,0,2,0.03
2013-1-31,56,56,56,55,55,55,95,95,95,28.90,28.90,1,1,8,0.00
2013-2-1,32,26,18,12,10,8,72,50,37,30.02,29.70,3,1,14,0.00
2013-2-2,28,21,13,13,8,5,80,58,39,30.19,30.01,1,0,6,0.00
2013-2-3,27,24,18,21,18,12,92,78,54,30.01,29.68,2,0,5,0.00
2013-2-4,31,24,18,18,11,4,85,60,37,29.86,29.66,4,1,13,0.00
2013-2-5,19,16,15,7,6,4,69,62,51,29.93,29.86,0,0,2,0.00
2013-2-6,36,31,22,25,19,5,85,60,48,30.26,29.91,2,0,9,0.01
2013-2-7,26,20,13,8,1,-5,61,44,26,30.50,30.26,2,0,5,0.01
2013-2-8,23,18,15,17,14,8,92,85,51,30.47,29.69,4,1,11,0.00
2013-2-9,23,17,10,21,15,7,93,91,87,30.12,29.58,7,2,15,0.00
2013-2-10,32,15,-1,24,11,-4,88,83,68,30.34,30.12,1,0,4,0.08
2013-2-11,37,24,9,36,22,6,98,93,85,30.31,29.57,2,0,5,0.16
2013-2-12,42,36,30,32,30,28,98,82,62,29.80,29.53,2,0,11,0.38
2013-2-13,34,34,34,29,29,29,81,81,81,29.76,29.76,0,0,0,0.00
2013-2-15,44,34,28,33,30,26,93,85,64,29.91,29.85,0,0,0,0.00
2013-2-16,39,33,26,32,27,19,96,78,55,29.91,29.70,2,0,7,0.02
2013-2-17,31,21,15,19,11,3,90,66,44,29.70,29.29,4,2,11,0.02
2013-2-18,30,21,13,7,3,1,63,48,29,30.07,29.56,4,2,12,0.06
2013-2-19,41,31,17,39,20,2,97,66,40,30.10,29.52,4,0,6,0.35
2013-2-20,36,32,26,35,24,16,98,73,54,29.70,29.46,3,0,7,0.34
2013-2-21,26,25,25,17,16,16,68,67,67,29.70,29.70,1,1,3,0.01
2013-3-2,43,38,33,31,30,30,88,75,59,29.62,29.56,0,0,1,0.00
2013-3-3,35,32,30,31,29,27,95,90,80,29.61,29.54,1,0,2,0.02
2013-3-4,37,32,29,28,25,23,81,75,65,29.69,29.52,3,1,8,0.00
2013-3-5,42,35,29,35,29,23,95,79,63,30.04,29.69,1,0,5,0.00
2013-3-6,37,35,34,35,33,30,95,91,77,30.14,30.04,5,2,10,0.11
2013-3-8,43,38,30,29,26,23,92,62,48,30.13,29.98,3,1,7,0.23
2013-3-9,44,36,25,30,25,21,95,67,45,30.33,30.13,3,1,6,0.25
2013-3-10,40,31,20,32,27,19,97,86,70,30.39,30.28,3,0,6,0.01
2013-3-11,52,39,30,39,34,29,96,81,47,30.30,30.11,2,0,6,0.00
2013-3-12,50,43,37,49,42,36,99,95,90,30.13,29.70,3,0,8,0.31
2013-3-13,49,41,35,48,39,34,98,94,75,29.71,29.67,0,0,3,0.31
2013-3-18,32,31,31,24,23,22,73,71,69,30.25,30.23,0,0,4,0.00
2013-3-19,33,31,29,32,30,24,97,94,72,30.23,29.64,2,0,7,0.00
2013-3-20,31,29,27,24,23,21,81,78,74,29.75,29.71,1,0,5,0.00
2013-3-21,39,29,18,27,22,16,93,76,46,29.76,29.57,1,0,5,0.48
2013-3-22,40,32,25,26,23,19,94,71,42,29.67,29.56,1,0,9,0.22
2013-3-23,41,34,24,25,22,19,80,65,44,29.71,29.56,3,1,17,0.02
2013-3-24,48,37,29,31,27,24,91,66,40,29.76,29.68,3,0,7,0.00
2013-3-25,41,34,26,34,29,24,93,83,72,29.74,29.53,2,0,10,0.00
2013-3-26,36,36,36,30,29,28,79,75,73,29.53,29.53,0,0,4,0.00
2013-3-31,55,51,45,38,32,24,74,48,32,30.06,29.78,4,1,8,0.00
2013-4-1,59,45,34,44,37,16,97,76,42,29.78,29.46,3,0,8,0.42
2013-4-2,38,32,28,18,15,13,64,51,36,29.81,29.71,3,0,10,0.01
2013-4-5,63,50,38,28,25,22,60,39,22,29.84,29.59,3,1,10,0.00
2013-4-6,38,33,29,24,13,8,56,44,28,30.16,29.82,3,1,12,0.00
2013-4-7,54,49,46,38,33,26,74,57,34,30.05,29.95,1,0,6,0.00
2013-4-8,66,50,37,41,38,33,97,66,30,30.01,29.90,1,0,6,0.00
2013-4-9,66,55,44,51,45,41,94,71,49,30.00,29.83,3,0,9,0.00
2013-4-10,45,44,43,44,42,40,97,93,86,29.97,29.90,0,0,1,0.17
2013-4-11,42,40,39,37,36,34,92,86,74,30.11,30.06,0,0,0,0.01
2013-4-12,41,36,34,37,32,27,97,86,57,30.18,29.80,3,0,7,0.40
2013-4-13,51,40,33,40,36,32,97,88,63,29.89,29.74,2,0,7,0.18
2013-4-14,41,40,39,39,38,38,96,94,91,29.91,29.88,0,0,0,0.11
2013-4-19,76,70,67,63,61,58,85,73,56,29.89,29.61,4,2,12,0.00
2013-4-20,68,54,42,63,43,25,96,69,40,30.15,29.55,2,0,8,0.39
2013-4-21,53,41,30,29,25,21,83,55,31,30.65,30.15,3,0,7,0.00
2013-4-22,50,39,28,36,30,25,93,72,39,30.76,30.59,3,0,8,0.00
2013-4-23,40,38,33,39,36,30,97,92,80,30.59,30.15,4,0,6,0.03
2013-4-24,68,51,40,55,46,39,97,85,62,30.15,29.75,4,0,8,0.02
2013-4-25,65,55,42,52,39,29,93,58,26,30.24,29.76,2,0,8,0.03
2013-4-26,57,45,32,40,34,29,91,68,42,30.40,30.24,3,0,7,0.01
2013-4-27,61,48,33,39,36,32,97,67,40,30.39,30.26,3,0,7,0.00
2013-4-28,44,41,39,38,31,-100,86,82,76,30.30,30.27,0,0,0,0.00
2013-4-30,49,46,42,35,34,34,73,65,57,30.35,30.32,0,0,0,0.00
2013-5-1,66,51,33,41,35,30,93,60,27,30.44,30.35,3,0,9,0.00
2013-5-2,74,50,38,47,40,35,92,71,27,30.47,30.35,3,0,9,0.00
2013-5-3,58,47,38,45,40,36,97,77,60,30.51,30.36,1,0,6,0.00
2013-5-4,58,46,36,45,39,34,98,78,48,30.36,30.29,2,0,6,0.00
2013-5-5,58,45,31,43,37,30,98,78,54,30.32,30.23,3,0,7,0.00
2013-5-6,63,47,33,50,42,32,98,86,56,30.26,30.13,3,0,7,0.00
2013-5-7,73,57,41,58,50,40,99,81,51,30.15,30.06,3,0,7,0.00
2013-5-8,70,59,49,62,55,48,98,89,74,30.19,30.05,2,0,7,0.05
2013-5-9,60,56,54,59,55,53,99,98,96,30.05,29.87,0,0,3,0.48
2013-5-10,75,59,53,63,54,-100,99,88,59,29.92,29.86,2,0,5,0.09
2013-5-11,69,60,51,63,58,50,99,92,77,29.87,29.67,2,0,8,0.10
2013-5-12,70,60,47,60,52,-100,99,80,53,29.73,29.52,1,0,6,0.11
2013-5-13,59,49,41,35,33,30,73,55,37,29.98,29.73,2,0,11,0.01
2013-5-14,61,49,36,37,34,29,92,59,29,30.01,29.91,2,0,5,0.00
2013-5-15,65,50,35,51,40,31,93,72,31,30.02,29.63,3,0,14,0.00
2013-5-16,82,56,46,51,25,-100,98,61,24,29.77,29.57,3,0,10,0.00
2013-5-17,68,55,47,47,37,-100,88,64,35,30.17,29.77,3,0,6,0.00
2013-5-18,69,53,41,51,46,40,97,78,43,30.27,30.17,1,0,6,0.00
2013-5-19,54,51,50,50,49,48,96,92,85,30.33,30.22,0,0,2,0.01
2013-5-20,78,64,51,66,59,50,99,87,63,30.22,29.88,1,0,7,0.07
2013-5-21,60,55,49,59,53,48,98,94,89,30.03,29.90,1,0,4,0.01
2013-5-22,56,52,49,54,51,48,99,96,87,30.03,29.85,0,0,4,0.98
2013-5-23,74,60,51,69,58,50,99,95,83,29.92,29.77,1,0,6,0.12
2013-5-24,70,63,51,68,61,50,100,95,84,29.80,29.61,1,0,5,0.63
2013-5-25,51,48,39,50,47,38,99,98,97,29.80,29.65,1,0,7,0.73
2013-5-26,57,46,38,45,41,37,99,82,62,30.02,29.63,1,0,8,0.29
2013-5-27,70,54,39,46,41,37,96,66,32,30.14,30.02,1,0,8,0.03
2013-5-28,69,55,40,49,43,38,97,69,33,30.22,30.14,2,0,7,0.00
2013-5-29,61,56,49,60,55,47,99,97,94,30.15,29.97,0,0,2,0.31
2013-5-30,57,56,55,57,56,55,99,99,99,29.99,29.97,0,0,0,0.31
2013-5-31,94,82,64,72,68,63,99,66,36,30.04,29.88,0,0,6,0.00
2013-6-1,95,80,65,71,66,61,97,68,33,29.92,29.79,1,0,7,0.00
2013-6-2,93,79,68,72,66,-100,94,70,40,29.82,29.66,2,0,9,0.00
2013-6-3,78,69,59,69,64,50,98,86,60,29.81,29.69,1,0,8,0.16
2013-6-4,69,59,50,51,47,44,85,64,43,30.06,29.78,1,0,6,0.03
2013-6-5,75,60,47,52,48,42,94,69,35,30.15,30.06,2,0,6,0.00
2013-6-6,68,60,52,56,53,50,96,80,59,30.16,30.09,1,0,3,0.00
2013-6-7,57,54,51,54,52,50,99,96,87,30.09,29.84,0,0,3,0.04
2013-6-8,73,60,52,67,58,51,99,92,72,29.95,29.60,1,0,6,1.15
2013-6-9,79,65,54,61,58,53,99,80,48,30.12,29.95,1,0,6,0.36
2013-6-10,66,59,53,58,56,52,98,89,73,30.19,30.02,1,0,4,0.18
2013-6-11,58,55,53,56,54,52,99,97,90,30.02,29.55,1,0,4,1.51
2013-6-12,59,56,55,58,55,54,99,98,98,29.55,29.53,0,0,2,0.81
2013-6-13,65,59,55,58,56,54,98,89,71,29.76,29.69,1,0,3,0.15
2013-6-14,72,59,52,61,55,51,99,90,62,29.72,29.64,0,0,2,0.49
2013-6-15,78,62,50,55,52,45,98,73,35,29.89,29.72,0,0,5,0.00
2013-6-16,75,66,52,61,57,50,94,75,50,29.89,29.67,1,0,5,0.00
2013-6-17,85,66,57,67,61,56,98,85,47,29.86,29.72,1,0,6,0.40
2013-6-18,68,61,57,63,58,56,99,93,80,29.93,29.85,0,0,1,0.01
2013-6-19,74,62,54,56,53,49,98,76,49,30.10,29.89,1,0,4,0.01
2013-6-20,76,60,48,58,51,46,97,76,47,30.23,30.10,0,0,3,0.00
2013-6-22,85,79,71,70,67,64,81,68,51,30.16,30.06,1,0,5,0.00
2013-6-23,89,74,62,76,68,61,98,83,62,30.11,29.91,1,0,4,0.07
2013-6-24,93,78,69,75,70,66,98,79,54,29.97,29.82,1,0,5,0.44
2013-6-25,90,76,67,75,70,66,99,84,56,29.88,29.68,1,0,5,0.44
2013-6-26,75,69,60,72,68,59,99,97,90,29.83,29.68,0,0,1,0.60
2013-6-27,67,61,58,65,60,57,99,97,90,29.85,29.77,0,0,1,0.34
2013-6-28,81,64,55,75,63,55,100,96,79,29.77,29.45,1,0,5,0.51
2013-6-29,85,74,66,73,69,65,99,85,63,29.66,29.49,1,0,6,0.01
2013-6-30,87,76,66,74,70,65,98,83,61,29.90,29.66,0,0,5,0.00
2013-7-1,78,72,69,73,70,68,99,95,85,30.04,29.89,0,0,2,1.01
2013-7-2,74,66,58,74,66,57,100,99,97,30.19,30.04,0,0,2,0.19
2013-7-3,85,70,58,77,68,58,100,92,72,30.19,30.07,1,0,4,0.01
2013-7-4,93,80,71,78,74,70,99,82,57,30.15,30.03,1,0,5,0.01
2013-7-5,87,77,73,77,74,71,98,89,73,30.11,30.06,0,0,4,0.00
2013-7-9,68,67,67,65,64,64,90,90,89,30.05,30.04,0,0,0,0.00
2013-7-10,74,72,71,73,71,70,99,97,94,29.78,29.75,0,0,4,0.07
2013-7-11,80,73,69,77,73,69,100,97,84,29.90,29.72,0,0,3,0.92
2013-7-12,78,68,62,69,62,60,99,82,55,30.18,29.90,0,0,3,0.79
2013-7-13,78,67,61,66,63,60,98,87,64,30.28,30.18,0,0,2,0.00
2013-7-14,86,74,65,76,70,64,99,88,65,30.27,30.17,0,0,3,0.01
2013-7-15,81,77,72,75,73,70,95,88,81,30.08,30.05,0,0,0,0.00
2013-7-16,91,76,66,75,70,65,99,83,53,30.14,30.07,0,0,2,0.00
2013-7-17,94,79,67,77,72,66,99,82,53,30.14,29.93,1,0,4,0.00
2013-7-18,89,76,71,75,72,70,99,87,63,29.98,29.91,0,0,3,0.07
2013-7-19,96,81,69,80,74,68,100,81,51,29.91,29.65,2,0,10,0.03
2013-7-20,90,80,72,78,70,-100,89,74,60,29.75,29.60,1,0,6,0.00
2013-7-21,78,70,64,67,64,60,97,83,61,29.97,29.75,1,0,4,0.00
2013-7-22,78,69,65,71,66,64,98,92,74,30.01,29.88,1,0,4,0.00
2013-7-23,68,67,66,68,67,65,99,97,94,29.88,29.56,0,0,0,0.57
2013-7-28,71,66,64,68,65,63,98,95,90,30.00,29.96,0,0,1,0.00
2013-7-29,78,68,64,72,67,63,99,94,80,30.02,29.93,0,0,4,0.01
2013-7-30,80,68,60,66,62,59,99,82,48,30.06,29.99,0,0,5,0.01
2013-7-31,79,67,57,64,60,56,99,82,56,30.10,30.01,1,0,5,0.00
2013-8-1,81,68,58,68,62,57,99,85,58,30.01,29.86,3,0,6,0.01
2013-8-2,81,69,63,69,65,61,99,89,62,29.86,29.73,0,0,4,0.56
2013-8-3,81,69,61,67,62,58,96,80,54,29.82,29.72,1,0,6,0.01
2013-8-4,79,66,57,63,59,54,95,79,51,29.84,29.73,0,0,5,0.00
2013-8-5,75,62,53,55,51,46,94,71,38,30.01,29.84,1,0,5,0.00
2013-8-6,78,62,47,57,51,45,97,73,41,30.13,30.01,0,0,4,0.00
2013-8-7,79,65,52,64,57,51,99,78,46,30.16,30.08,0,0,4,0.00
2013-8-8,84,71,61,72,65,55,98,84,66,30.09,29.96,1,0,6,0.05
2013-8-9,72,71,69,72,70,68,99,96,92,29.99,29.69,1,0,12,1.59
2013-8-10,81,70,59,69,64,56,100,83,46,29.98,29.74,0,0,6,0.20
2013-8-11,79,64,53,62,56,52,98,78,48,30.04,29.96,1,0,7,0.00
2013-8-12,82,66,56,65,59,55,98,80,45,29.98,29.88,0,0,5,0.00
2013-8-13,71,66,62,68,63,-100,97,92,83,29.88,29.67,0,0,2,0.02
2013-8-14,75,65,58,63,56,-100,98,78,53,29.90,29.62,1,0,6,0.01
2013-8-15,77,58,52,59,44,-100,94,75,46,30.07,29.90,1,0,6,0.00
2013-8-16,78,62,52,62,54,-100,97,80,52,30.15,30.06,0,0,2,0.00
2013-8-17,78,64,54,63,58,53,99,81,54,30.24,30.15,0,0,4,0.00
2013-8-18,80,65,55,68,60,-100,98,86,64,30.24,30.04,0,0,2,0.00
2013-8-19,80,65,58,68,52,-100,99,83,60,30.04,29.90,0,0,4,0.00
2013-8-26,80,75,70,70,68,64,93,79,67,29.95,29.83,0,0,5,0.00
2013-8-27,84,73,66,70,68,65,97,85,61,29.85,29.80,0,0,4,0.00
2013-8-28,82,73,64,70,66,63,96,80,64,29.97,29.84,1,0,4,0.00
2013-8-29,65,64,61,64,62,59,98,93,86,30.06,29.93,1,0,3,0.03
2013-8-30,84,69,61,71,64,59,96,86,61,30.00,29.77,0,0,4,0.00
2013-8-31,79,73,67,75,70,66,97,92,86,29.80,29.73,1,0,4,0.02
2013-9-1,87,74,70,75,70,-100,98,89,66,29.85,29.74,1,0,5,0.53
2013-9-2,71,70,68,71,70,67,99,99,98,29.85,29.69,0,0,1,1.36
2013-9-3,79,70,63,73,68,61,100,94,79,29.75,29.67,0,0,3,0.22
2013-9-4,80,66,57,64,60,56,98,84,53,29.87,29.75,1,0,6,0.04
2013-9-5,69,60,48,61,56,45,97,86,67,30.11,29.82,0,0,4,0.02
2013-9-6,71,53,41,52,46,40,98,80,44,30.21,30.05,0,0,4,0.01
2013-9-7,77,60,47,63,54,46,96,83,52,30.05,29.80,1,0,5,0.01
2013-9-8,69,61,48,61,52,-100,91,74,48,30.05,29.70,1,0,7,0.01
2013-9-9,71,55,41,54,47,40,97,77,44,30.20,30.05,1,0,6,0.00
2013-9-10,71,64,54,69,61,50,98,92,86,30.11,29.99,1,0,7,0.02
2013-9-11,93,77,68,79,72,67,99,87,60,30.01,29.88,1,0,5,0.02
2013-9-12,80,71,66,76,69,65,99,96,87,29.95,29.65,0,0,3,0.02
2013-9-13,73,65,56,70,64,55,100,98,88,29.72,29.53,0,0,2,0.02
2013-9-14,65,58,55,60,56,54,99,95,79,29.86,29.71,0,0,2,0.01
2013-9-15,69,60,55,57,55,53,94,83,60,30.04,30.01,0,0,3,0.02
2013-9-16,58,55,54,56,54,53,97,95,92,30.01,29.96,0,0,2,0.02
2013-9-19,75,58,46,59,52,45,98,83,48,30.11,30.00,1,0,2,0.01
2013-9-20,75,59,47,60,54,46,99,85,56,30.07,29.97,0,0,2,0.02
2013-9-21,55,52,50,54,52,49,99,97,96,30.00,29.96,0,0,0,0.01
2013-9-22,70,62,52,62,56,47,98,81,62,29.78,29.61,1,0,6,0.01
2013-9-23,61,52,44,47,44,41,92,76,55,29.92,29.77,1,0,5,0.01
2013-9-24,63,53,40,48,45,39,97,76,52,29.89,29.79,1,0,4,0.01
2013-9-25,60,51,42,53,48,41,98,88,69,29.96,29.85,0,0,1,0.01
2013-9-26,66,55,47,54,50,45,95,83,61,30.11,29.96,0,0,2,0.01
2013-9-27,66,57,50,56,53,49,96,86,68,30.23,30.11,0,0,2,0.01
2013-9-28,71,56,46,59,52,45,99,86,60,30.31,30.22,1,0,3,0.01
2013-9-29,67,52,44,54,47,-100,99,85,53,30.25,30.10,1,0,5,0.01
2013-9-30,65,52,44,55,48,43,98,89,61,30.11,29.95,0,0,2,0.01
2013-10-1,59,55,46,56,54,45,96,93,89,29.95,29.83,0,0,0,0.01
2013-10-2,79,62,52,64,57,51,99,87,58,29.89,29.76,1,0,6,0.01
2013-10-3,75,60,51,59,55,50,98,84,49,30.05,29.89,0,0,4,0.01
2013-10-4,59,53,49,55,52,48,98,95,87,30.06,30.01,0,0,0,0.01
2013-10-6,55,53,52,55,52,50,99,97,93,30.23,30.14,0,0,1,0.00
2013-10-7,73,63,55,68,62,55,100,96,84,30.14,29.77,4,0,10,0.01
2013-10-8,64,54,43,57,47,41,97,80,49,30.35,29.85,1,0,5,0.01
2013-10-9,60,47,37,48,42,36,98,86,60,30.46,30.35,1,0,3,0.01
2013-10-10,59,48,38,53,46,37,99,92,78,30.35,30.17,0,0,1,0.01
2013-10-11,66,53,44,54,49,43,98,87,60,30.17,30.09,0,0,1,0.01
2013-10-12,55,51,47,54,50,45,99,96,92,30.39,30.14,0,0,4,0.01
2013-10-13,47,43,43,45,38,-100,97,92,94,30.40,30.38,0,0,0,0.01
2013-10-17,71,59,52,57,52,49,91,80,61,29.73,29.68,0,0,4,0.00
2013-10-18,68,59,49,60,52,41,99,79,54,29.85,29.56,2,0,9,0.01
2013-10-19,67,52,39,49,43,37,95,74,47,29.93,29.73,1,0,3,0.01
2013-10-20,63,52,41,49,41,-100,95,69,41,29.97,29.65,1,0,8,0.00
2013-10-21,64,48,35,49,41,33,96,78,47,30.08,29.96,1,0,4,0.01
2013-10-22,62,51,42,54,47,39,96,87,66,29.96,29.67,0,0,6,0.00
2013-10-23,52,43,33,40,37,32,97,80,54,29.76,29.56,0,0,4,0.00
2013-10-24,52,44,36,39,33,30,91,68,45,29.83,29.58,2,0,7,0.01
2013-10-25,50,41,30,36,30,26,94,67,44,30.10,29.83,1,0,8,0.01
2013-10-26,53,41,27,36,29,25,96,68,37,30.11,29.84,3,0,9,0.03
2013-10-27,54,45,34,40,36,-100,93,71,48,30.01,29.77,2,0,7,0.01
2013-10-28,57,41,31,38,31,-100,94,72,48,30.32,30.00,5,0,10,0.01
2013-10-29,47,34,24,30,25,21,93,73,38,30.42,30.32,1,0,4,0.06
2013-10-30,47,36,28,38,32,26,95,86,70,30.33,30.16,0,0,2,0.03
2013-10-31,59,41,29,58,40,28,99,95,86,30.21,29.77,1,0,6,0.03
2013-11-1,71,64,57,62,58,53,97,79,63,29.77,29.36,3,1,18,0.01
2013-11-2,57,49,42,53,46,41,97,89,71,29.68,29.58,0,0,1,0.01
2013-11-3,49,40,28,47,33,-100,95,77,55,30.39,29.67,0,0,4,0.00
2013-11-4,41,30,23,22,20,18,87,69,41,30.67,30.39,1,0,4,0.11
2013-11-5,48,33,23,34,28,20,92,80,51,30.68,30.48,0,0,4,0.09
2013-11-6,59,48,35,49,41,33,93,78,56,30.48,29.98,1,0,5,0.01
2013-11-7,63,53,36,58,50,34,96,88,82,29.98,29.64,1,0,10,0.01
2013-11-8,39,34,30,35,30,26,94,83,63,29.87,29.77,1,0,5,0.00
2013-11-9,43,39,36,31,25,-100,78,60,48,30.15,30.02,1,0,4,0.00
2013-11-10,49,42,37,45,38,30,97,86,70,30.02,29.70,0,0,5,0.01
2013-11-11,49,43,37,35,30,27,80,63,42,30.04,29.77,2,0,7,0.01
2013-11-12,46,35,26,37,24,17,87,64,57,30.14,29.83,1,0,9,0.00
2013-11-13,35,28,22,18,16,13,74,61,43,30.23,30.11,1,0,5,0.01
2013-11-14,49,36,27,31,24,14,86,62,46,30.11,29.97,2,0,6,0.08
2013-11-15,55,38,27,34,25,22,89,66,28,30.14,30.06,1,0,4,0.07
2013-11-16,56,39,29,35,29,-100,92,70,33,30.29,30.14,0,0,2,0.02
2013-11-17,52,44,29,51,42,27,98,96,92,30.29,29.86,0,0,2,0.02
2013-11-18,63,55,43,61,50,37,99,86,52,29.86,29.48,2,0,10,0.00
2013-11-19,45,37,30,37,24,19,74,59,45,30.22,29.59,3,0,8,0.00
2013-11-20,41,31,22,20,18,16,79,59,37,30.59,30.22,1,0,7,0.00
2013-11-21,45,29,18,24,19,15,90,69,29,30.60,30.41,1,0,4,0.00
2013-11-22,41,39,38,40,38,37,98,97,95,30.15,29.78,0,0,1,0.01
2013-11-23,42,36,29,41,27,-100,98,73,50,29.86,29.72,2,0,6,0.01
2013-11-24,29,23,19,21,8,0,84,54,38,30.09,29.72,3,1,0,0.00
2013-11-25,29,22,16,14,2,-5,59,42,22,30.29,30.09,2,0,0,0.00
2013-11-26,35,32,28,31,24,14,96,74,52,30.29,30.07,0,0,0,0.00
2013-11-27,60,48,32,59,47,31,99,97,91,30.07,29.18,5,1,0,0.00
2013-11-28,35,30,20,33,19,10,91,66,47,30.39,29.34,2,0,0,0.00
2013-12-2,38,36,34,37,35,34,98,98,96,30.00,29.89,0,0,3,0.17
2013-12-3,44,35,28,40,34,27,98,95,79,29.90,29.81,1,0,3,0.07
2013-12-4,39,32,27,31,28,25,98,87,69,30.16,29.89,1,0,3,0.08
2013-12-5,40,34,26,39,33,25,99,96,92,30.19,29.89,0,0,1,0.09
2013-12-6,47,42,33,47,41,32,100,96,86,30.13,29.82,0,0,5,0.04
2013-12-7,35,30,22,34,26,-100,98,87,65,30.41,30.05,0,0,4,0.03
2013-12-8,29,25,18,21,18,16,93,78,60,30.55,30.40,1,0,3,0.00
2013-12-9,36,31,25,35,29,20,98,93,73,30.48,29.84,1,0,4,0.01
2013-12-10,33,30,23,32,28,18,98,94,80,29.91,29.74,0,0,5,0.01
2013-12-11,32,24,18,19,17,15,90,74,55,30.14,29.91,4,0,7,0.00
2013-12-12,23,17,10,18,9,2,89,72,42,30.22,30.02,3,0,6,0.00
2013-12-13,26,18,10,20,11,1,84,73,63,30.36,29.93,3,0,8,0.00
2013-12-14,15,11,6,13,3,-100,90,71,49,30.58,30.25,1,0,4,0.00
2013-12-15,31,20,14,30,18,12,97,93,90,30.25,29.39,2,0,6,0.00
2013-12-16,13,10,6,6,5,2,84,79,74,30.16,30.09,0,0,0,0.00
2013-12-17,16,7,-5,13,4,-8,91,84,63,30.25,29.96,2,0,4,0.00
2013-12-18,33,22,13,24,18,10,92,84,65,30.01,29.83,2,0,5,0.00
2013-12-19,39,29,21,26,23,19,91,78,57,30.06,29.90,2,0,7,0.04
2013-12-20,43,34,27,34,30,25,96,88,70,30.08,29.86,0,0,4,0.30
2013-12-21,52,38,32,43,35,-100,97,90,69,29.90,29.80,1,0,4,0.17
2013-12-22,38,33,30,37,32,29,98,98,97,30.02,29.82,2,0,5,0.11
2013-12-23,32,31,29,32,31,29,98,98,98,30.07,29.95,1,0,4,0.01
2013-12-24,33,29,23,32,24,14,99,83,59,30.16,30.01,1,0,5,0.21
2013-12-25,23,16,9,15,7,0,83,67,51,30.52,30.16,2,0,6,0.02
2013-12-26,26,19,13,25,16,9,95,89,81,30.48,30.05,0,0,0,0.00
2013-12-27,32,20,10,25,16,8,97,87,69,30.21,30.13,0,0,4,0.00
2013-12-28,41,30,17,32,24,-100,94,81,63,30.18,29.93,1,0,7,0.01
2013-12-29,38,32,26,35,30,24,98,92,77,29.99,29.43,3,0,6,0.30
2013-12-30,38,30,14,36,25,3,98,83,60,30.14,29.48,1,0,6,0.46
2013-12-31,20,15,11,8,5,0,89,67,42,30.14,29.99,0,0,3,0.00
2014-1-1,23,16,11,11,9,7,90,72,54,30.35,30.11,1,0,7,0.00
2014-1-2,16,7,-2,12,3,-6,89,84,76,30.35,29.90,4,1,11,0.00